Location: Unspecified
(0.0000°N, 0.0000°E)
Time: 03:54:27
(UTC+00:00)

S-56A Canister/Altair - Visible Passes

Search period start: 01 September 2015 00:00
Search period end: 11 September 2015 00:00
Orbit: 636 x 2499 km, 38.9° (Epoch: 30 August)

Date Brightness Start Highest point End Pass type
(mag) Time Alt. Az. Time Alt. Az. Time Alt. Az.
01 Sep 10.2 03:11:03 20° SE 03:11:03 20° SE 03:12:43 10° SE visible
01 Sep 10.0 05:08:33 11° SW 05:09:33 11° SW 05:11:00 10° SSW visible
02 Sep 10.0 04:38:33 15° SSW 04:38:33 15° SSW 04:40:55 10° S visible
03 Sep 10.1 04:08:25 15° S 04:08:25 15° S 04:09:51 10° S visible
03 Sep 11.7 23:08:51 10° NNW 23:09:04 10° NNW 23:09:04 10° NNW visible
04 Sep 10.5 03:38:10 11° S 03:38:10 11° S 03:38:26 10° S visible
04 Sep 11.6 22:35:59 10° NNW 22:37:54 13° N 22:37:54 13° N visible
05 Sep 11.5 22:03:12 10° NNW 22:06:46 16° N 22:06:46 16° N visible
06 Sep 11.4 21:30:34 10° N 21:35:41 17° N 21:35:41 17° N visible
07 Sep 11.3 20:58:07 10° N 21:04:39 16° NNE 21:04:39 16° NNE visible
07 Sep 11.7 23:01:08 10° NNW 23:02:03 12° NNW 23:02:03 12° NNW visible
08 Sep 11.3 20:25:55 10° N 20:32:21 14° NNE 20:33:39 14° NNE visible
08 Sep 11.4 22:28:09 10° NNW 22:31:05 18° NNW 22:31:05 18° NNW visible
09 Sep 11.4 19:54:11 10° N 19:58:47 12° NNE 20:02:43 11° NE visible
09 Sep 11.2 21:55:15 10° NNW 22:00:09 22° NNW 22:00:09 22° NNW visible
10 Sep 11.4 19:23:53 10° NNE 19:25:12 10° NNE 19:27:43 10° NNE visible
10 Sep 11.0 21:22:28 10° NNW 21:29:18 26° N 21:29:18 26° N visible
